Вернуться в каталог

WGS 6

USA 244

АктивенВоенныеGEO
NORAD 39222·PAYLOAD·🇺🇸 United States

Запущен Aug 8, 2013 с Cape Canaveral Space Force Station

Loading…

TLE

СвежийSource: Space-Track

Эпоха: Sep 14, 2026, 13:27 UTC

1 39222U 13041A   26257.56054234  .00000081  00000-0  00000-0 0  9997
2 39222   0.0139 185.1231 0000186 182.3593  52.6362  1.00270980 46955

Отслеживайте WGS 6 в реальном времени с AllMySat

Download on the App Store